TimeEST,TemperatureF,Dew PointF,Humidity,Sea Level PressureIn,VisibilityMPH,Wind Direction,Wind SpeedMPH,Gust SpeedMPH,PrecipitationIn,Events,Conditions,WindDirDegrees,DateUTC
12:52 AM,45.0,28.9,53,30.22,10.0,North,10.4,-,N/A,,Clear,360,2012-12-12 05:52:00
1:52 AM,45.0,26.1,48,30.24,10.0,North,13.8,-,N/A,,Clear,360,2012-12-12 06:52:00
2:52 AM,43.0,28.0,56,30.27,10.0,North,9.2,-,N/A,,Clear,10,2012-12-12 07:52:00
3:52 AM,43.0,27.0,53,30.28,10.0,North,9.2,-,N/A,,Clear,10,2012-12-12 08:52:00
4:52 AM,43.0,27.0,53,30.28,10.0,NNE,10.4,-,N/A,,Clear,20,2012-12-12 09:52:00
5:06 AM,42.8,26.6,53,30.29,10.0,NNE,11.5,-,N/A,,Scattered Clouds,20,2012-12-12 10:06:00
5:52 AM,43.0,26.1,51,30.31,10.0,NNE,10.4,-,N/A,,Partly Cloudy,20,2012-12-12 10:52:00
6:52 AM,42.1,27.0,55,30.34,10.0,NNE,9.2,-,N/A,,Overcast,20,2012-12-12 11:52:00
7:52 AM,42.1,26.1,53,30.35,-9999.0,North,9.2,-,N/A,,Mostly Cloudy,10,2012-12-12 12:52:00
8:52 AM,43.0,27.0,53,30.37,10.0,North,9.2,-,N/A,,Mostly Cloudy,10,2012-12-12 13:52:00
9:52 AM,44.1,27.0,51,30.39,10.0,NNE,10.4,-,N/A,,Mostly Cloudy,20,2012-12-12 14:52:00
10:52 AM,44.1,27.0,51,30.40,10.0,North,8.1,-,N/A,,Mostly Cloudy,10,2012-12-12 15:52:00
11:52 AM,45.0,27.0,49,30.38,10.0,North,10.4,-,N/A,,Mostly Cloudy,10,2012-12-12 16:52:00
12:52 PM,45.0,27.0,49,30.39,10.0,North,11.5,-,N/A,,Mostly Cloudy,360,2012-12-12 17:52:00
1:52 PM,45.0,27.0,49,30.37,10.0,North,13.8,-,N/A,,Mostly Cloudy,360,2012-12-12 18:52:00
2:52 PM,45.0,27.0,49,30.36,10.0,North,11.5,-,N/A,,Mostly Cloudy,350,2012-12-12 19:52:00
3:52 PM,44.1,28.0,53,30.37,10.0,North,10.4,-,N/A,,Mostly Cloudy,10,2012-12-12 20:52:00
4:52 PM,44.1,28.0,53,30.38,10.0,North,6.9,-,N/A,,Mostly Cloudy,10,2012-12-12 21:52:00
5:52 PM,43.0,28.9,58,30.37,10.0,NNE,6.9,-,N/A,,Overcast,20,2012-12-12 22:52:00
6:52 PM,43.0,28.0,56,30.38,10.0,NNE,9.2,-,N/A,,Overcast,20,2012-12-12 23:52:00
7:52 PM,43.0,28.9,58,30.42,10.0,NNE,9.2,-,N/A,,Overcast,20,2012-12-13 00:52:00
8:52 PM,42.1,28.9,60,30.39,10.0,NNE,8.1,-,N/A,,Overcast,30,2012-12-13 01:52:00
9:52 PM,43.0,28.9,58,30.41,10.0,North,9.2,-,N/A,,Overcast,10,2012-12-13 02:52:00
10:52 PM,43.0,28.9,58,30.40,10.0,North,13.8,-,N/A,,Overcast,360,2012-12-13 03:52:00
11:52 PM,42.1,28.9,60,30.38,10.0,NNE,12.7,-,N/A,,Clear,30,2012-12-13 04:52:00